EW0868 Weather Reports


Display with metric or nautical units.
time (UTC)temp
F
wind
direction
speed
MPH
gust
MPH
rain 1hr
in
rain 24hr
in
rain mn
in
humidity
%
barometer
mb
20260507090038 51 224 0.0 0.0 0.00 0.00 0.00 83 1021.6
20260507084534 51 223 0.0 0.0 0.00 0.00 0.00 83 1021.7
20260507083031 51 233 0.0 0.0 0.00 0.00 0.00 83 1021.8
20260507081545 51 360 0.0 0.0 0.00 0.00 0.00 83 1021.8
20260507080037 51 206 0.0 0.0 0.00 0.00 0.00 83 1021.8
20260507074552 52 252 0.0 0.0 0.00 0.00 0.00 84 1021.7
20260507073045 52 260 0.0 0.0 0.00 0.00 0.00 84 1021.8
20260507071600 52 250 0.0 0.0 0.00 0.00 0.00 84 1021.8
20260507070045 52 254 0.0 0.0 0.00 0.00 0.00 84 1021.6
20260507064542 52 233 3.0 5.0 0.00 0.00 0.00 84 1021.5
20260507063035 52 264 0.0 0.0 0.00 0.00 0.00 84 1021.5
20260507061533 52 247 0.0 0.0 0.00 0.00 0.00 84 1021.6
20260507060101 53 251 0.0 0.0 0.00 0.00 0.00 85 1021.6
20260507054533 53 281 2.0 8.0 0.00 0.00 0.00 85 1021.6
20260507053051 53 261 3.0 5.0 0.00 0.00 0.00 85 1021.6
20260507051545 53 360 5.0 7.0 0.00 0.00 0.00 85 1021.7
20260507050056 53 242 2.0 5.0 0.00 0.00 0.00 85 1021.6
20260507044548 54 248 1.0 6.0 0.00 0.00 0.00 85 1021.7
20260507043042 54 253 1.0 5.0 0.00 0.00 0.00 85 1021.7
20260507041539 54 240 3.0 8.0 0.00 0.00 0.00 84 1021.7
20260507040048 54 258 0.0 0.0 0.00 0.00 0.00 83 1021.6
20260507034545 54 216 0.0 0.0 0.00 0.00 0.00 83 1021.5
20260507033059 54 282 0.0 3.0 0.00 0.00 0.00 83 1021.3
20260507031554 54 288 4.0 6.0 0.00 0.00 0.00 83 1021.4
20260507030042 55 258 4.0 5.0 0.00 0.00 0.00 82 1021.2
20260507024535 55 225 4.0 8.0 0.00 0.00 0.00 82 1021.2
20260507023034 55 261 5.0 7.0 0.00 0.00 0.00 83 1021.1
20260507021547 55 162 4.0 6.0 0.00 0.00 0.00 83 1021.1
20260507020039 55 218 0.0 7.0 0.00 0.00 0.00 84 1021.1
20260507014532 55 360 5.0 6.0 0.00 0.00 0.00 84 1021.3
20260507013050 55 251 5.0 8.0 0.00 0.00 0.00 84 1021.3
20260507011542 55 360 4.0 7.0 0.00 0.00 0.00 85 1021.3
20260507010031 55 283 4.0 8.0 0.00 0.00 0.00 84 1021.3
20260507004549 55 250 4.0 8.0 0.00 0.00 0.00 84 1021.4
20260507003102 55 267 0.0 6.0 0.00 0.00 0.00 85 1021.3
20260507001537 55 250 5.0 11.0 0.00 0.00 0.00 87 1021.3
20260507000105 54 207 3.0 5.0 0.00 0.00 0.00 87 1021.4
20260506234559 54 254 0.0 4.0 0.00 0.00 0.00 88 1021.4
20260506233035 54 259 3.0 5.0 0.00 0.00 0.00 88 1021.5
20260506231549 54 249 6.0 10.0 0.00 0.00 0.00 87 1021.6
20260506230039 55 243 7.0 10.0 0.00 0.00 0.00 86 1021.7
20260506224534 55 360 5.0 10.0 0.00 0.00 0.00 85 1021.8
20260506223032 55 258 6.0 11.0 0.00 0.00 0.00 85 1021.8
20260506221542 55 241 6.0 10.0 0.00 0.00 0.00 84 1021.8
20260506220109 55 241 5.0 10.0 0.00 0.00 0.00 83 1021.8
20260506214545 55 218 6.0 10.0 0.00 0.00 0.00 84 1021.7
20260506213040 55 360 7.0 15.0 0.00 0.00 0.00 84 1021.7
20260506211536 55 227 5.0 8.0 0.00 0.00 0.00 83 1021.7
20260506210104 55 228 2.0 7.0 0.00 0.00 0.00 83 1021.7
20260506204556 55 261 4.0 10.0 0.00 0.00 0.00 83 1021.7
20260506203054 54 257 4.0 7.0 0.00 0.00 0.00 85 1021.6
20260506201605 54 241 3.0 9.0 0.00 0.00 0.00 85 1021.6
20260506200110 54 240 4.0 9.0 0.00 0.00 0.00 85 1021.5
20260506194546 54 251 4.0 9.0 0.00 0.00 0.00 86 1021.4
20260506193039 54 225 5.0 9.0 0.00 0.00 0.00 86 1021.4
20260506191537 54 234 4.0 8.0 0.00 0.00 0.00 86 1021.3
20260506190044 54 249 4.0 7.0 0.00 0.00 0.00 86 1021.1
20260506184559 54 251 2.0 7.0 0.00 0.00 0.00 86 1021.0
20260506183054 54 246 3.0 7.0 0.00 0.00 0.00 86 1020.9
20260506181547 53 233 0.0 4.0 0.00 0.00 0.00 86 1021.0
20260506180040 54 260 1.0 4.0 0.00 0.00 0.00 85 1021.1
20260506174533 53 248 1.0 7.0 0.00 0.00 0.00 84 1021.1
20260506173046 54 248 1.0 8.0 0.00 0.00 0.00 83 1021.0
20260506171543 54 202 2.0 6.0 0.00 0.00 0.00 84 1020.8
20260506170110 54 197 3.0 5.0 0.00 0.00 0.00 84 1020.8
20260506164546 54 279 0.0 3.0 0.00 0.00 0.00 83 1020.7
20260506163040 54 261 0.0 0.0 0.00 0.00 0.00 83 1020.6
20260506161537 54 214 3.0 4.0 0.00 0.00 0.00 83 1020.6
20260506160105 54 292 1.0 7.0 0.00 0.00 0.00 83 1020.7
20260506154538 54 360 1.0 5.0 0.00 0.00 0.00 83 1020.3
20260506153033 54 225 2.0 5.0 0.00 0.00 0.00 83 1020.3
20260506151547 54 223 1.0 6.0 0.00 0.00 0.00 83 1020.2
20260506150038 53 225 0.0 0.0 0.00 0.00 0.00 84 1019.9
20260506144553 53 360 0.0 0.0 0.00 0.00 0.00 83 1019.8
20260506143045 53 238 0.0 3.0 0.00 0.00 0.00 83 1019.8
20260506141542 53 227 0.0 3.0 0.00 0.00 0.00 84 1019.8
20260506140030 53 254 0.0 0.0 0.00 0.00 0.00 84 1019.6
20260506134548 53 232 0.0 1.0 0.00 0.00 0.00 84 1019.3
20260506133042 53 229 0.0 0.0 0.00 0.00 0.00 85 1019.2
20260506131540 53 229 0.0 0.0 0.00 0.00 0.00 85 1019.1
20260506130047 53 231 0.0 0.0 0.00 0.00 0.00 85 1019.4
20260506124600 53 250 0.0 0.0 0.00 0.00 0.00 86 1019.2
20260506123036 53 237 0.0 0.0 0.00 0.00 0.00 86 1019.2
20260506121549 53 248 0.0 0.0 0.00 0.00 0.00 86 1019.1
20260506120040 53 227 0.0 0.0 0.00 0.00 0.00 87 1018.8
20260506114533 53 229 0.0 0.0 0.00 0.00 0.00 87 1019.0
20260506113046 53 246 0.0 0.0 0.00 0.00 0.00 87 1019.0
20260506111542 53 242 0.0 2.0 0.00 0.00 0.00 86 1018.8
20260506110030 53 210 1.0 4.0 0.00 0.00 0.00 86 1018.7
20260506104550 53 254 0.0 0.0 0.00 0.00 0.00 87 1018.6
20260506103044 53 223 0.0 0.0 0.00 0.00 0.00 86 1018.4
20260506101541 53 360 0.0 0.0 0.00 0.00 0.00 86 1018.3
20260506100030 53 241 0.0 0.0 0.00 0.00 0.00 86 1018.4
20260506094548 53 241 0.0 0.0 0.00 0.00 0.00 85 1018.4
20260506093038 53 242 0.0 0.0 0.00 0.00 0.00 85 1018.3
20260506091530 53 271 0.0 0.0 0.00 0.00 0.00 85 1018.2